[[{"header":{"parameterUnit":"m.s-1","parameterCategory":1,"la1":30.2991,"la2":30.254,"lo1":-89.0895,"lo2":-89.0444,"dy":0.0017,"dx":0.0017,"nx":28,"ny":28,"refTime":"2025-05-14T21:00:00:Z","depth":0,"parameterNumber":2,"parameterNumberName":"U-component_of_WINDS"},"data":[0,0,0,0,0,0,0,0,0,0,0,0,0,0,0,0,0,0,0,0,0,0,0,0,0,0,0,0,0,0,0,0,0,0,0,0,0,0,0,0,0,0,0,0,0,0,0,0,0,0,0,0,0,0,0,0,0,0,0.6439,0.6439,0,0.6477,0.6477,0.6477,0.6482,0.6482,0.6482,0.6481,0.6522,0.6523,0.6525,0,0,0,0,0,0,0,0,0,0,0,0,0,0.6372,0.6373,0.6439,0.6439,0.644,0.6476,0.6477,0.6478,0.6482,0.6482,0.6482,0.6481,0.6522,0.6523,0.6525,0,0,0,0,0,0,0,0,0,0,0,0,0,0.6405,0.6374,0.6438,0.6446,0.6447,0.6476,0.6477,0.6478,0.6483,0.6482,0.6481,0.6481,0.6521,0.6523,0.6525,0.6549,0,0,0.6532,0.6533,0,0,0,0,0,0,0,0,0.6403,0.6407,0.6445,0.6446,0.6447,0.6474,0.6468,0.6502,0.6483,0.6469,0.6481,0.6481,0.6507,0.651,0.6518,0.6551,0.6553,0.6532,0.6533,0.6534,0.6535,0,0,0,0,0,0,0,0.6401,0.6406,0.6454,0.6445,0.6447,0.6449,0.6453,0.6475,0.6491,0.647,0.6471,0.6475,0.6507,0.6516,0.6519,0.6554,0.6532,0.6534,0.6535,0.6536,0.6609,0.661,0,0,0,0,0,0,0.6397,0.6404,0.6452,0.6455,0.6423,0.645,0.6455,0.6466,0.649,0.6494,0.6476,0.6475,0.6513,0.6517,0.6521,0.6552,0.6534,0.6536,0.6537,0.6608,0.6609,0.661,0,0,0,0,0,0,0.6395,0.6401,0.6451,0.6429,0.6436,0.6452,0.6465,0.6467,0.6476,0.6494,0.6497,0.6482,0.6513,0.6518,0.6542,0.6553,0.6537,0.6539,0.6608,0.6609,0.661,0.6613,0,0,0,0,0,0,0.6393,0.64,0.6409,0.6429,0.6437,0.6471,0.6465,0.6468,0.648,0.648,0.6501,0.6504,0.6513,0.6539,0.6544,0.6556,0.6541,0.6607,0.6608,0.6609,0.6612,0.6614,0.6615,0,0,0,0,0,0.6391,0.6409,0.641,0.6416,0.6448,0.6472,0.6476,0.6485,0.648,0.649,0.6502,0.6503,0.6551,0.6541,0.6548,0.656,0.6606,0.6608,0.6609,0.6611,0.6613,0.6615,0,0,0,0,0,0,0.639,0.6412,0.6413,0.6438,0.6453,0.6473,0.6485,0.6487,0.6505,0.6504,0.6515,0.6519,0.6544,0.6554,0.6543,0.6585,0.6578,0.6581,0.6577,0.658,0.6582,0.6579,0.6542,0,0,0,0,0,0.6393,0.6409,0.6428,0.6448,0.6455,0.6469,0.6479,0.6485,0.6501,0.6508,0.6521,0.6538,0.6556,0.6568,0.6586,0.6613,0.6618,0.6624,0.6626,0.6627,0.663,0.6646,0.6649,0.6615,0.6615,0.6615,0,0,0.6399,0.6412,0.6422,0.6448,0.646,0.6478,0.6474,0.6493,0.6507,0.6511,0.6535,0.6545,0.6564,0.659,0.6602,0.6599,0.664,0.6629,0.663,0.6632,0.6648,0.6651,0.6654,0.6616,0.6616,0.6616,0,0,0.6419,0.643,0.6449,0.6461,0.648,0.6489,0.6493,0.6513,0.652,0.6544,0.6548,0.6564,0.6595,0.6609,0.662,0.6645,0.6648,0.6651,0.6661,0.6676,0.6679,0.6681,0.6691,0.6695,0.6653,0.6653,0.6653,0,0.6424,0.6451,0.6458,0.6478,0.6489,0.6493,0.6513,0.6524,0.6548,0.6556,0.6552,0.6592,0.6605,0.6635,0.6641,0.6649,0.6655,0.6649,0.6677,0.668,0.6683,0.6692,0.6696,0.6653,0.6653,0.6653,0.6653,0,0.6457,0.6475,0.6488,0.6511,0.6524,0.6543,0.6554,0.6566,0.657,0.658,0.6605,0.662,0.6642,0.6649,0.6653,0.6679,0.6677,0.6675,0.6669,0.6686,0.6696,0.6699,0.6654,0.6654,0.6654,0.6654,0,0,0.6478,0.6505,0.651,0.652,0.6541,0.6556,0.6575,0.6596,0.6607,0.6623,0.664,0.6666,0.6665,0.6677,0.6683,0.6696,0.6717,0.6693,0.6694,0.6698,0.6747,0.675,0.6754,0.6718,0.6718,0.6719,0.6746,0,0.6502,0.6537,0.6545,0.6575,0.6592,0.6596,0.6613,0.6628,0.6637,0.6654,0.6664,0.6683,0.6679,0.6687,0.67,0.6711,0.6727,0.6709,0.6735,0.6736,0.6732,0.6759,0.6762,0.6787,0.675,0.6751,0.6751,0,0.6535,0.6551,0.6583,0.6602,0.661,0.6625,0.6645,0.6661,0.6678,0.6683,0.6697,0.6702,0.6723,0.6714,0.6744,0.6732,0.6742,0.675,0.6751,0.6755,0.6746,0.6765,0.6795,0.6799,0.6757,0.6756,0.6756,0,0.6549,0.6579,0.6603,0.6612,0.6634,0.6645,0.6654,0.6671,0.6683,0.67,0.6708,0.6728,0.6739,0.6754,0.6764,0.6757,0.6793,0.6785,0.68,0.68,0.6809,0.6808,0.6842,0.6813,0.6813,0.6813,0.6813,0,0.6576,0.6596,0.661,0.6624,0.6647,0.6655,0.6677,0.6687,0.6702,0.6719,0.6722,0.6738,0.675,0.6767,0.6775,0.6799,0.6803,0.6809,0.6812,0.681,0.681,0.6819,0.6818,0.6814,0.6814,0.6813,0.6813,0,0.6596,0.6607,0.6632,0.6651,0.6656,0.6672,0.6689,0.6703,0.6712,0.6733,0.6739,0.6753,0.6774,0.6785,0.6811,0.6816,0.6843,0.6844,0.6838,0.6839,0.6853,0.6852,0.6895,0.6902,0.6867,0.6867,0.6867,0,0.6614,0.6629,0.6649,0.6661,0.6671,0.6689,0.6702,0.671,0.6723,0.6744,0.6756,0.6777,0.6794,0.6828,0.6841,0.6861,0.6862,0.6876,0.6866,0.6864,0.6864,0.6864,0.6866,0.6878,0.6879,0.6879,0.6879,0,0.6643,0.6648,0.6665,0.6685,0.6699,0.6715,0.6731,0.674,0.6751,0.6765,0.6787,0.68,0.6827,0.6848,0.6869,0.6879,0.6882,0.6882,0.6887,0.6886,0.6883,0.6887,0.6845,0.6882,0.6881,0.6881,0.6881,0.6881,0.6664,0.6678,0.6695,0.6715,0.6727,0.6742,0.6757,0.6767,0.6785,0.6807,0.6811,0.6834,0.6851,0.6879,0.689,0.6908,0.6906,0.6912,0.6914,0.6916,0.6917,0.6878,0.6912,0.6912,0.6912,0.6912,0.6912,0,0.6696,0.6706,0.6724,0.6746,0.6762,0.6761,0.6778,0.6792,0.6812,0.6827,0.6844,0.6869,0.6889,0.6903,0.6924,0.6936,0.6938,0.6941,0.6942,0.6944,0.6918,0.6912,0.694,0.694,0.694,0.694,0.694,0.694,0.6714,0.6738,0.6745,0.6775,0.6786,0.6809,0.6819,0.6832,0.6845,0.6872,0.6889,0.6898,0.6913,0.6935,0.6954,0.6957,0.6965,0.6969,0.6973,0.6949,0.6946,0.6943,0.6938,0.6971,0.6971,0.6998,0.6999,0.6999]},{"header":{"parameterUnit":"m.s-1","parameterCategory":1,"la1":30.2991,"la2":30.254,"lo1":-89.0895,"lo2":-89.0444,"dy":0.0017,"dx":0.0017,"nx":28,"ny":28,"refTime":"2025-05-14T21:00:00:Z","depth":0,"parameterNumber":3,"parameterNumberName":"V-component_of_WINDS"},"data":[0,0,0,0,0,0,0,0,0,0,0,0,0,0,0,0,0,0,0,0,0,0,0,0,0,0,0,0,0,0,0,0,0,0,0,0,0,0,0,0,0,0,0,0,0,0,0,0,0,0,0,0,0,0,0,0,0,0,5.8975,5.8975,0,5.8905,5.8904,5.8904,5.8861,5.8861,5.8861,5.8861,5.8781,5.8779,5.8777,0,0,0,0,0,0,0,0,0,0,0,0,0,5.9066,5.9065,5.8975,5.8975,5.8974,5.8905,5.8904,5.8903,5.8861,5.8861,5.8861,5.8861,5.8782,5.878,5.8777,0,0,0,0,0,0,0,0,0,0,0,0,0,5.9014,5.9064,5.8976,5.8945,5.8941,5.8906,5.8904,5.8903,5.8861,5.8861,5.8861,5.8861,5.8783,5.878,5.8777,5.8764,0,0,5.8768,5.8767,0,0,0,0,0,0,0,0,5.9017,5.9011,5.895,5.8947,5.8943,5.8892,5.8907,5.8856,5.8862,5.8892,5.8861,5.8861,5.8818,5.8812,5.8799,5.876,5.8757,5.8768,5.8766,5.8765,5.8764,0,0,0,0,0,0,0,5.9021,5.9014,5.8947,5.8949,5.8945,5.8932,5.8924,5.8897,5.8857,5.8889,5.8886,5.8878,5.8816,5.8802,5.8797,5.8756,5.8768,5.8765,5.8763,5.8762,5.8703,5.8703,0,0,0,0,0,0,5.9031,5.9017,5.895,5.8945,5.8981,5.8931,5.8922,5.8908,5.8857,5.8849,5.8879,5.8877,5.8807,5.88,5.8794,5.8776,5.8765,5.8762,5.876,5.8702,5.8703,5.8703,0,0,0,0,0,0,5.9033,5.9025,5.8952,5.898,5.897,5.893,5.8914,5.8907,5.8894,5.8849,5.8841,5.8873,5.8807,5.8798,5.8772,5.8772,5.8761,5.8758,5.8702,5.8702,5.8703,5.874,0,0,0,0,0,0,5.9036,5.9026,5.9022,5.8981,5.8969,5.8934,5.8914,5.8906,5.889,5.8886,5.8842,5.8834,5.8806,5.8777,5.8769,5.8768,5.8756,5.8702,5.8702,5.8703,5.8738,5.8741,5.8744,0,0,0,0,0,5.9039,5.9034,5.9022,5.9015,5.8964,5.8935,5.8928,5.8898,5.889,5.8885,5.8856,5.8835,5.8774,5.8775,5.8766,5.8764,5.8702,5.8702,5.8703,5.8737,5.874,5.8743,0,0,0,0,0,0,5.9074,5.9028,5.9015,5.8996,5.897,5.8928,5.892,5.8902,5.8876,5.8873,5.8835,5.8825,5.8803,5.878,5.8782,5.8748,5.8735,5.8734,5.8764,5.8767,5.877,5.8776,5.8753,0,0,0,0,0,5.908,5.9062,5.9022,5.9009,5.8997,5.8961,5.8947,5.8927,5.8897,5.8885,5.8854,5.8824,5.8798,5.8781,5.8754,5.8735,5.8724,5.8729,5.8731,5.8734,5.8733,5.872,5.8722,5.8704,5.8704,5.8704,0,0,5.9091,5.9064,5.9054,5.9016,5.8993,5.8974,5.8952,5.8932,5.8917,5.8881,5.8856,5.8832,5.8796,5.8773,5.8761,5.8753,5.8736,5.8734,5.8737,5.8734,5.8721,5.8723,5.8724,5.8704,5.8704,5.8704,0,0,5.9102,5.908,5.9068,5.9046,5.9013,5.8989,5.8986,5.8946,5.8931,5.8905,5.8878,5.8858,5.8813,5.8789,5.877,5.8773,5.8752,5.8765,5.8779,5.8767,5.8769,5.877,5.8771,5.8771,5.8764,5.8764,5.8764,0,5.9119,5.9092,5.9063,5.9045,5.9029,5.8998,5.8984,5.8963,5.8922,5.891,5.8903,5.8847,5.882,5.8792,5.8793,5.8779,5.8773,5.877,5.8771,5.8772,5.8773,5.8773,5.8773,5.8766,5.8766,5.8766,5.8766,0,5.9115,5.9096,5.9089,5.9054,5.9036,5.9021,5.8987,5.8973,5.8954,5.893,5.8904,5.8871,5.8838,5.8829,5.8809,5.8797,5.8794,5.8779,5.8765,5.8777,5.8776,5.8776,5.8769,5.8768,5.8768,5.8767,0,0,5.9145,5.9095,5.9093,5.9077,5.9038,5.9022,5.9004,5.8974,5.8962,5.8934,5.8918,5.8882,5.8868,5.8848,5.8824,5.8814,5.8818,5.8801,5.8799,5.8805,5.8803,5.8814,5.8815,5.8805,5.8804,5.8804,5.8806,0,5.9151,5.9121,5.9094,5.9073,5.9055,5.9025,5.901,5.8983,5.8961,5.894,5.8913,5.8889,5.8873,5.8861,5.8849,5.8821,5.8817,5.882,5.8787,5.8786,5.8798,5.8815,5.8827,5.883,5.8806,5.8806,5.8806,0,5.9153,5.913,5.9108,5.9072,5.9063,5.905,5.9021,5.9002,5.897,5.8954,5.8932,5.8909,5.8886,5.8875,5.8843,5.8845,5.883,5.8814,5.8813,5.8809,5.8797,5.8811,5.883,5.8831,5.8805,5.8805,5.8805,0,5.9178,5.9141,5.9123,5.911,5.9067,5.9059,5.904,5.9009,5.8993,5.8966,5.8955,5.8924,5.8908,5.8884,5.8852,5.8847,5.8823,5.8809,5.8808,5.8809,5.8805,5.8805,5.8822,5.8795,5.8795,5.8795,5.8795,0,5.9187,5.9175,5.9134,5.9123,5.9108,5.9076,5.9061,5.904,5.9012,5.8995,5.8966,5.895,5.8909,5.8887,5.8861,5.8839,5.8831,5.8817,5.881,5.8819,5.8821,5.8809,5.8808,5.8795,5.8795,5.8795,5.8795,0,5.9213,5.9185,5.9164,5.9126,5.9116,5.9106,5.9073,5.906,5.9036,5.9015,5.9008,5.8969,5.8942,5.8909,5.8869,5.8852,5.8832,5.8822,5.8844,5.884,5.8841,5.8842,5.885,5.885,5.8823,5.8824,5.8824,0,5.922,5.9211,5.9173,5.9161,5.9144,5.9124,5.9108,5.9076,5.906,5.9025,5.9016,5.8987,5.8963,5.892,5.8887,5.8857,5.8846,5.8851,5.8841,5.8851,5.8846,5.8847,5.8846,5.8854,5.8854,5.8854,5.8855,0,5.9237,5.9224,5.9204,5.9179,5.9162,5.914,5.9116,5.9107,5.907,5.9053,5.9027,5.9008,5.897,5.8941,5.8907,5.8885,5.8863,5.8858,5.8857,5.8866,5.888,5.8873,5.8851,5.8858,5.8858,5.8858,5.8857,5.8857,5.9254,5.9244,5.9217,5.9195,5.9174,5.9153,5.914,5.9116,5.9094,5.9063,5.9044,5.9018,5.8986,5.8939,5.8918,5.8895,5.8887,5.8884,5.8884,5.8884,5.8887,5.8884,5.8889,5.8888,5.8888,5.8888,5.8888,0,5.927,5.9251,5.9231,5.9201,5.9183,5.9167,5.914,5.9126,5.9105,5.9078,5.9056,5.9025,5.8997,5.8963,5.8932,5.8921,5.891,5.8914,5.8914,5.891,5.8896,5.8901,5.8923,5.8923,5.8923,5.8923,5.8923,5.8923,5.9276,5.9259,5.9243,5.9214,5.9195,5.9172,5.9158,5.9137,5.9116,5.9085,5.9063,5.9041,5.9011,5.8978,5.8951,5.8942,5.8932,5.8939,5.8926,5.8914,5.891,5.8908,5.8912,5.8937,5.8937,5.8942,5.8942,5.8942]}]]